FW7255 Weather Reports


time (UTC)temp
F
wind
direction
speed
knots
gust
knots
rain 1hr
in
rain 24hr
in
rain mn
in
humidity
%
barometer
mb
20260508025548 53 0 0.0 0.0 0.00 0.78 0.77 100 1013.5
20260508025052 53 0 0.0 0.0 0.00 0.78 0.77 100 1013.4
20260508024557 53 0 0.0 0.0 0.00 0.78 0.77 100 1013.4
20260508024048 53 0 0.0 0.0 0.00 0.78 0.77 100 1013.3
20260508023553 53 0 0.0 0.0 0.00 0.78 0.77 100 1013.2
20260508023055 53 0 0.0 0.0 0.00 0.78 0.77 100 1013.1
20260508022551 53 0 0.0 0.0 0.00 0.78 0.77 100 1013.1
20260508022052 53 0 0.0 0.0 0.00 0.78 0.77 100 1013.2
20260508021554 53 0 0.0 0.0 0.00 0.78 0.77 100 1013.1
20260508021051 53 0 0.0 0.0 0.00 0.78 0.77 100 1013.1
20260508020554 53 0 0.0 0.0 0.00 0.78 0.77 100 1013.0
20260508020053 53 0 0.0 0.0 0.00 0.78 0.77 100 1013.4
20260508015550 53 0 0.0 0.0 0.00 0.78 0.77 100 1013.3
20260508015051 53 0 0.0 0.0 0.00 0.78 0.77 100 1013.0
20260508014552 53 0 0.0 0.0 0.00 0.78 0.77 100 1012.9
20260508014051 53 0 0.0 0.0 0.00 0.78 0.77 100 1012.7
20260508013554 53 0 0.0 0.0 0.00 0.78 0.77 100 1012.5
20260508013053 53 0 0.0 0.0 0.00 0.78 0.77 100 1012.5
20260508012549 53 0 0.0 0.0 0.00 0.78 0.77 100 1012.2
20260508012053 53 0 0.0 0.0 0.00 0.78 0.77 100 1012.2
20260508011559 54 0 0.0 0.0 0.00 0.78 0.77 100 1012.4
20260508011050 54 0 0.0 0.0 0.00 0.78 0.77 100 1012.5
20260508010552 54 0 0.0 0.0 0.00 0.78 0.77 100 1012.5
20260508010052 54 0 0.0 0.0 0.00 0.78 0.77 100 1012.6
20260508005550 54 0 0.0 0.0 0.00 0.78 0.77 100 1012.4
20260508005052 54 0 0.0 0.0 0.00 0.78 0.77 100 1012.2
20260508004549 54 0 0.0 0.9 0.00 0.78 0.77 100 1012.2
20260508004051 54 0 0.0 2.6 0.00 0.78 0.77 100 1012.0
20260508003548 53 0 0.0 3.5 0.00 0.78 0.77 100 1011.9
20260508003052 53 149 0.9 3.5 0.00 0.78 0.77 100 1012.0
20260508002548 53 0 0.0 0.9 0.00 0.78 0.77 100 1012.1
20260508002048 53 0 0.0 0.0 0.00 0.78 0.77 100 1012.1
20260508001551 53 0 0.0 0.9 0.00 0.78 0.77 100 1012.0
20260508001048 54 0 0.0 0.9 0.00 0.78 0.77 100 1012.0
20260508000550 54 0 0.0 0.9 0.00 0.78 0.77 100 1011.8
20260508000054 54 0 0.0 0.9 0.00 0.78 0.77 100 1011.5
20260507235550 54 0 0.0 0.0 0.00 0.78 0.77 100 1011.5
20260507235051 54 0 0.0 0.0 0.00 0.78 0.77 100 1011.3
20260507234552 54 0 0.0 0.0 0.00 0.78 0.77 100 1011.3
20260507234050 54 0 0.0 0.9 0.00 0.78 0.77 100 1011.3
20260507233552 54 0 0.0 1.7 0.00 0.78 0.77 100 1011.1
20260507233053 54 0 0.0 1.7 0.00 0.78 0.77 100 1011.0
20260507232548 54 0 0.9 1.7 0.00 0.78 0.77 100 1011.0
20260507232048 54 0 0.0 0.0 0.00 0.78 0.77 100 1011.0
20260507231556 54 0 0.0 2.6 0.00 0.78 0.77 100 1011.2
20260507231051 54 0 0.0 2.6 0.00 0.78 0.77 100 1011.2
20260507230551 54 0 0.0 0.0 0.00 0.78 0.77 100 1011.2
20260507225551 54 0 0.0 0.9 0.00 0.78 0.77 100 1011.3
20260507225053 54 0 0.0 0.9 0.00 0.78 0.77 100 1011.0
20260507224556 54 0 0.0 1.7 0.00 0.78 0.77 100 1010.9
20260507224054 54 0 0.0 1.7 0.00 0.78 0.77 100 1010.9
20260507223550 54 0 0.0 0.9 0.00 0.78 0.77 100 1010.9
20260507223057 54 0 0.0 1.7 0.00 0.78 0.77 100 1010.9
20260507222550 54 136 0.9 2.6 0.00 0.78 0.77 100 1010.8
20260507222049 54 206 0.0 2.6 0.00 0.78 0.77 100 1011.0
20260507221551 54 323 0.9 3.5 0.00 0.78 0.77 100 1011.1
20260507221047 54 0 0.9 3.5 0.00 0.78 0.77 100 1010.9
20260507220548 54 26 0.0 1.7 0.00 0.78 0.77 100 1011.2
20260507220054 54 272 0.0 1.7 0.00 0.78 0.77 100 1011.2
20260507215551 54 0 0.0 0.9 0.00 0.78 0.77 100 1011.1
20260507215050 54 0 0.0 0.9 0.00 0.78 0.77 100 1011.0
20260507214616 54 0 0.0 0.9 0.00 0.78 0.77 100 1011.0
20260507214051 54 0 0.0 2.6 0.00 0.78 0.77 100 1010.9
20260507213548 54 272 0.0 2.6 0.00 0.78 0.77 100 1011.0
20260507213104 54 52 0.0 3.5 0.00 0.78 0.77 100 1010.9
20260507212550 54 0 0.0 3.5 0.00 0.78 0.77 100 1011.0
20260507212050 54 290 0.0 2.6 0.00 0.78 0.77 100 1010.9
20260507211606 53 0 0.0 2.6 0.00 0.78 0.77 100 1011.0
20260507211050 53 57 0.9 2.6 0.00 0.78 0.77 100 1010.7
20260507210550 54 51 0.0 2.6 0.00 0.78 0.77 100 1010.8
20260507210054 54 273 0.0 4.3 0.00 0.78 0.77 100 1010.7
20260507205554 54 0 0.0 4.3 0.00 0.78 0.77 100 1010.4
20260507205049 54 32 0.9 4.3 0.00 0.78 0.77 100 1010.3
20260507204607 54 313 0.9 3.5 0.00 0.78 0.77 99 1010.5
20260507204051 54 324 0.0 5.2 0.00 0.78 0.77 99 1010.5
20260507203548 54 270 0.9 5.2 0.00 0.78 0.77 99 1010.6
20260507203059 54 28 0.9 5.2 0.00 0.78 0.77 99 1010.5
20260507202547 55 0 0.9 5.2 0.00 0.78 0.77 100 1010.4
20260507202053 55 79 0.0 5.2 0.00 0.78 0.77 100 1010.4
20260507201553 55 0 0.9 4.3 0.00 0.78 0.77 100 1010.2
20260507201051 55 237 0.0 4.3 0.00 0.78 0.77 100 1010.1
20260507200553 56 67 0.0 2.6 0.00 0.78 0.77 100 1010.1
20260507200050 56 263 0.0 2.6 0.00 0.78 0.77 100 1010.2
20260507195548 56 28 0.0 1.7 0.01 0.85 0.77 100 1010.3
20260507195048 56 88 0.0 4.3 0.01 0.85 0.77 100 1010.4
20260507194619 56 0 0.0 4.3 0.01 0.85 0.77 100 1010.0
20260507194049 56 344 0.0 5.2 0.01 0.85 0.77 100 1009.9
20260507193548 56 53 0.9 5.2 0.01 0.85 0.77 100 1010.0
20260507193053 56 0 0.0 3.5 0.01 0.85 0.77 100 1010.1
20260507192546 56 71 0.0 3.5 0.01 0.85 0.77 100 1010.3
20260507192047 56 56 0.9 5.2 0.01 0.85 0.77 100 1010.3
20260507191555 56 0 0.0 5.2 0.01 0.85 0.77 100 1010.3
20260507191047 56 22 0.9 5.2 0.01 0.85 0.77 100 1010.5
20260507190549 56 277 0.9 2.6 0.01 0.85 0.77 100 1010.4
20260507190052 57 0 0.0 2.6 0.01 0.85 0.77 100 1010.1
20260507185547 57 0 0.0 2.6 0.01 0.96 0.76 100 1010.0
20260507185048 57 262 0.0 1.7 0.01 0.96 0.76 100 1009.5
20260507184605 57 0 0.0 0.9 0.01 0.96 0.76 100 1009.9
20260507184051 57 0 0.0 1.7 0.02 0.96 0.76 100 1010.1
20260507183548 57 0 0.9 4.3 0.02 0.96 0.76 100 1010.3
20260507183055 57 0 0.9 4.3 0.02 0.96 0.76 99 1010.3
20260507182550 57 325 0.0 1.7 0.02 0.96 0.76 99 1009.7
20260507182050 58 227 0.9 2.6 0.02 0.96 0.76 100 1009.6
20260507181554 58 0 0.0 3.5 0.02 0.96 0.76 99 1009.3
20260507181048 58 72 0.9 4.3 0.02 0.96 0.76 99 1009.5
20260507180551 58 243 1.7 4.3 0.02 0.96 0.76 99 1009.6
20260507180057 59 84 0.9 2.6 0.02 0.96 0.76 99 1009.3
20260507175548 60 31 0.9 2.6 0.01 0.95 0.75 99 1009.6
20260507175048 60 66 0.9 3.5 0.01 0.95 0.75 99 1010.2
20260507174555 61 212 0.9 3.5 0.01 0.95 0.75 99 1010.2
20260507174048 61 22 0.9 4.3 0.01 0.94 0.74 99 1010.4
20260507173548 62 28 0.9 7.0 0.01 0.94 0.74 98 1010.0
20260507173055 64 53 2.6 7.0 0.01 0.94 0.74 97 1009.2
20260507172549 66 319 0.9 7.0 0.01 0.94 0.74 100 1009.1
20260507172049 67 0 0.0 0.0 0.01 0.94 0.74 100 1008.7
20260507171554 67 0 0.0 0.0 0.01 0.94 0.74 100 1008.6
20260507171048 67 0 0.0 0.0 0.01 0.94 0.74 100 1008.4
20260507170550 68 0 0.0 0.0 0.02 0.94 0.74 100 1008.5
20260507170052 68 0 0.0 0.0 0.04 0.94 0.74 100 1008.5
20260507165550 68 0 0.0 0.0 0.04 0.94 0.74 100 1008.4
20260507165049 68 0 0.0 0.0 0.04 0.94 0.74 100 1008.7
20260507164556 69 0 0.0 0.0 0.04 0.94 0.74 100 1008.8
20260507164048 69 0 0.0 0.9 0.03 0.93 0.73 100 1009.1
20260507163549 69 0 0.0 2.6 0.03 0.93 0.73 100 1009.6
20260507163051 68 0 0.9 4.3 0.03 0.93 0.73 100 1009.7
20260507162549 68 0 0.9 4.3 0.03 0.93 0.73 100 1009.7
20260507162050 68 0 0.0 2.6 0.03 0.93 0.73 100 1009.9
20260507161555 68 244 0.0 1.7 0.03 0.93 0.73 100 1009.9
20260507161047 68 0 0.0 2.6 0.03 0.93 0.73 100 1010.0
20260507160549 68 0 0.0 2.6 0.03 0.92 0.72 100 1010.3
20260507160052 68 0 0.0 0.0 0.02 0.90 0.70 100 1010.2
20260507155548 68 0 0.0 1.7 0.02 0.90 0.70 100 1010.1
20260507155051 68 0 0.0 1.7 0.03 0.90 0.70 100 1010.2
20260507154557 68 271 0.0 1.7 0.03 0.90 0.70 100 1010.0
20260507154048 68 265 0.0 1.7 0.03 0.90 0.70 100 1009.8
20260507153548 68 0 0.0 2.6 0.04 0.90 0.70 100 1009.5
20260507153058 67 0 0.0 2.6 0.05 0.90 0.70 100 1009.5
20260507152550 67 281 0.0 1.7 0.06 0.90 0.70 100 1010.0
20260507152048 67 121 0.0 0.9 0.07 0.90 0.70 100 1009.8
20260507151554 67 255 0.0 0.9 0.07 0.90 0.70 100 1010.0
20260507151049 67 0 0.0 0.0 0.07 0.90 0.70 100 1010.1
20260507150548 67 0 0.0 0.0 0.06 0.89 0.69 100 1010.1
20260507150057 67 0 0.0 0.0 0.06 0.88 0.68 100 1010.1
20260507145551 67 0 0.0 1.7 0.12 0.88 0.68 100 1010.3
20260507145047 67 0 0.0 2.6 0.16 0.87 0.67 100 1010.3
20260507144556 67 0 0.0 2.6 0.24 0.87 0.67 100 1010.3
20260507144051 67 247 0.0 2.6 0.24 0.86 0.66 100 1010.3
20260507143549 67 0 0.0 1.7 0.25 0.86 0.66 100 1010.3
20260507143107 67 0 0.0 2.6 0.25 0.85 0.65 100 1010.3
20260507142548 67 0 0.0 2.6 0.25 0.84 0.64 100 1010.3
20260507142048 67 0 0.0 3.5 0.25 0.83 0.63 100 1010.3
20260507141553 67 0 0.0 3.5 0.26 0.83 0.63 100 1010.2
20260507141048 67 239 0.0 3.5 0.27 0.83 0.63 100 1010.1
20260507140550 67 0 0.0 4.3 0.27 0.83 0.63 100 1010.3
20260507140053 67 236 0.0 4.3 0.27 0.82 0.62 99 1010.6
20260507135552 67 256 0.0 4.3 0.23 0.76 0.56 99 1010.6
20260507135048 67 0 0.9 4.3 0.17 0.70 0.50 99 1010.6
20260507134557 67 250 0.0 3.5 0.10 0.63 0.43 99 1010.8
20260507134049 67 0 0.0 3.5 0.09 0.62 0.42 99 1010.8
20260507133548 67 0 0.9 3.5 0.08 0.61 0.41 99 1010.8
20260507133100 67 189 0.9 3.5 0.07 0.60 0.40 99 1010.5
20260507132551 67 0 0.0 2.6 0.07 0.58 0.39 99 1010.8
20260507132047 67 250 0.9 2.6 0.06 0.58 0.38 99 1010.7
20260507131611 67 258 0.0 1.7 0.05 0.57 0.37 100 1010.6
20260507131049 67 0 0.0 1.7 0.04 0.56 0.36 100 1010.7
20260507130548 67 0 0.0 1.7 0.04 0.56 0.36 99 1010.7
20260507130055 66 0 0.0 1.7 0.03 0.55 0.35 99 1010.7
20260507125548 66 0 0.0 0.9 0.01 0.52 0.33 99 1010.8
20260507125049 66 0 0.0 0.9 0.01 0.52 0.33 99 1010.8
20260507124600 66 0 0.0 0.9 0.01 0.52 0.33 99 1010.7
20260507124048 66 0 0.0 0.0 0.01 0.52 0.33 99 1010.8
20260507123548 66 0 0.0 0.9 0.01 0.52 0.33 99 1010.8
20260507123055 66 0 0.0 0.9 0.00 0.52 0.32 99 1010.9
20260507122548 66 0 0.0 0.0 0.00 0.52 0.32 99 1010.7
20260507122049 66 0 0.0 0.9 0.01 0.52 0.32 99 1010.6
20260507121557 66 0 0.0 0.9 0.02 0.52 0.32 99 1010.7
20260507121048 66 0 0.0 0.9 0.05 0.52 0.32 99 1010.8
20260507120547 66 0 0.0 0.9 0.05 0.52 0.32 99 1010.8
20260507120054 66 0 0.0 0.9 0.05 0.52 0.32 99 1010.9
20260507115549 66 222 0.0 0.0 0.05 0.52 0.32 99 1010.8
20260507115050 66 0 0.0 3.5 0.05 0.52 0.32 99 1010.7
20260507114558 66 0 0.0 3.5 0.05 0.52 0.32 99 1011.0
20260507114047 66 222 0.9 3.5 0.05 0.52 0.32 99 1011.1
20260507113550 66 230 0.0 1.7 0.05 0.52 0.32 99 1011.1
20260507113100 66 0 0.0 3.5 0.05 0.52 0.32 99 1011.1
20260507112553 66 0 0.9 3.5 0.05 0.52 0.32 99 1010.9
20260507112050 66 258 0.9 3.5 0.04 0.51 0.31 99 1011.0
20260507111553 66 276 0.9 4.3 0.04 0.50 0.30 99 1011.1
20260507111048 66 151 0.9 4.3 0.01 0.47 0.27 99 1011.2
20260507110551 66 279 0.0 4.3 0.01 0.47 0.27 100 1011.1
20260507110053 66 0 0.9 2.6 0.01 0.47 0.27 100 1011.0
20260507105547 65 246 0.0 2.6 0.01 0.47 0.27 99 1010.8
20260507105048 65 0 0.9 2.6 0.02 0.47 0.27 99 1010.7
20260507104556 65 0 0.0 2.6 0.02 0.47 0.27 99 1010.7
20260507104047 65 0 0.0 2.6 0.02 0.47 0.27 99 1010.5
20260507103548 65 0 0.0 2.6 0.02 0.47 0.27 99 1010.7
20260507103052 65 238 0.9 3.5 0.02 0.47 0.27 99 1010.7
20260507102547 65 269 0.0 3.5 0.02 0.47 0.27 99 1010.6
20260507102049 65 286 0.9 2.6 0.01 0.46 0.26 100 1010.6
20260507101554 65 0 0.0 2.6 0.01 0.46 0.26 99 1010.7
20260507101048 65 0 0.0 2.6 0.02 0.46 0.26 99 1010.8
20260507100547 65 0 0.0 2.6 0.02 0.46 0.26 99 1010.7
20260507100053 65 0 0.0 2.6 0.02 0.46 0.26 99 1010.7
20260507095548 65 0 0.0 1.7 0.03 0.46 0.26 99 1010.6
20260507095048 65 0 0.0 0.9 0.02 0.45 0.25 99 1010.7
20260507094551 65 0 0.0 0.9 0.02 0.45 0.25 99 1010.7
20260507094052 65 0 0.0 3.5 0.02 0.45 0.25 99 1010.8
20260507093554 65 0 0.0 3.5 0.02 0.45 0.25 99 1010.8
20260507093055 65 0 0.0 0.0 0.02 0.45 0.25 99 1010.6
20260507092553 65 0 0.0 0.0 0.02 0.45 0.25 99 1010.7
20260507092051 65 0 0.0 0.0 0.02 0.45 0.25 99 1010.6
20260507091552 65 0 0.0 0.0 0.02 0.45 0.25 99 1010.6
20260507091054 65 0 0.0 0.0 0.01 0.44 0.24 99 1010.8
20260507090551 65 0 0.0 0.0 0.02 0.44 0.24 99 1010.9
20260507090054 65 0 0.0 0.0 0.03 0.44 0.24 99 1010.8
20260507085551 65 0 0.0 0.0 0.02 0.43 0.23 99 1010.8
20260507085051 65 0 0.0 0.9 0.02 0.43 0.23 99 1010.9
20260507084556 65 0 0.0 0.9 0.03 0.43 0.23 99 1010.9
20260507084051 65 0 0.0 0.0 0.04 0.43 0.23 99 1011.0
20260507083552 65 0 0.0 0.0 0.05 0.43 0.23 99 1011.2
20260507083053 65 0 0.0 0.0 0.05 0.43 0.23 99 1011.3
20260507082549 65 0 0.0 0.0 0.05 0.43 0.23 99 1011.4
20260507082053 65 0 0.0 0.9 0.05 0.43 0.23 99 1011.4
20260507081553 65 0 0.0 0.9 0.05 0.43 0.23 99 1011.5
20260507081048 65 0 0.0 0.9 0.05 0.43 0.23 99 1011.7
20260507080548 65 0 0.0 0.0 0.04 0.42 0.22 99 1011.3
20260507080115 65 0 0.0 0.0 0.03 0.41 0.21 99 1011.2
20260507075552 65 0 0.0 0.0 0.03 0.41 0.21 99 1011.3
20260507075055 65 0 0.0 0.0 0.03 0.41 0.21 99 1010.9
20260507074551 65 0 0.0 0.0 0.02 0.40 0.20 99 1011.4
20260507074051 65 0 0.0 1.7 0.01 0.39 0.19 99 1011.5
20260507073549 65 0 0.0 1.7 0.00 0.38 0.18 99 1011.9
20260507073053 65 260 0.0 1.7 0.00 0.38 0.18 99 1012.0
20260507072548 65 0 0.0 0.9 0.00 0.38 0.18 99 1011.8
20260507072051 65 0 0.0 0.9 0.00 0.38 0.18 99 1011.9
20260507071609 65 0 0.0 0.9 0.00 0.38 0.18 98 1011.6
20260507071048 65 0 0.0 0.0 0.00 0.38 0.18 98 1012.0
20260507070551 65 0 0.0 0.9 0.00 0.38 0.18 98 1011.8
20260507070057 65 0 0.0 0.9 0.00 0.38 0.18 98 1011.4
20260507065550 65 0 0.0 0.9 0.00 0.38 0.18 98 1011.6
20260507065051 65 0 0.0 0.0 0.00 0.38 0.18 98 1011.8
20260507064555 65 0 0.0 0.9 0.00 0.38 0.18 98 1011.9
20260507064052 65 0 0.0 0.9 0.00 0.38 0.18 98 1012.1
20260507063551 65 0 0.0 0.0 0.00 0.38 0.18 98 1012.5
20260507063056 65 0 0.0 0.0 0.00 0.38 0.18 98 1012.5
20260507062552 65 0 0.0 0.0 0.00 0.38 0.18 98 1012.6
20260507062048 65 0 0.0 0.0 0.00 0.38 0.18 98 1012.1
20260507061558 65 0 0.0 0.0 0.01 0.38 0.18 98 1012.2
20260507061052 65 0 0.0 0.0 0.02 0.38 0.18 98 1012.6
20260507060551 65 0 0.0 0.0 0.04 0.38 0.18 98 1013.0
20260507060057 65 0 0.0 0.9 0.05 0.38 0.18 98 1012.9
20260507055554 66 0 0.0 0.9 0.06 0.38 0.18 97 1012.8
20260507055047 66 250 0.0 0.9 0.07 0.38 0.18 97 1012.8
20260507054554 66 0 0.0 0.0 0.08 0.38 0.18 97 1012.6
20260507054051 66 0 0.0 0.0 0.10 0.38 0.18 97 1012.6
20260507053556 66 0 0.0 0.0 0.13 0.38 0.18 97 1011.9
20260507053120 66 0 0.0 0.0 0.14 0.38 0.18 97 1011.7
20260507052550 66 0 0.0 0.0 0.15 0.38 0.18 96 1011.9
20260507052051 66 0 0.0 0.0 0.16 0.38 0.18 96 1011.9
20260507051601 66 0 0.0 0.9 0.17 0.37 0.17 96 1011.9
20260507051052 66 0 0.0 0.9 0.16 0.36 0.16 96 1011.9
20260507050553 66 0 0.0 6.1 0.14 0.34 0.14 95 1012.9
20260507050059 67 0 0.0 6.1 0.13 0.33 0.13 95 1013.1
20260507045548 67 271 0.9 7.8 0.12 0.32 0.12 95 1013.5
20260507045048 67 0 1.7 8.7 0.11 0.31 0.11 94 1013.8
20260507044557 67 279 0.9 8.7 0.10 0.30 0.10 94 1014.0
20260507044048 68 0 1.7 7.8 0.08 0.28 0.08 93 1014.1
20260507043552 68 225 0.9 6.1 0.06 0.25 0.05 93 1013.9
20260507043054 68 244 1.7 6.1 0.05 0.24 0.04 92 1013.9
20260507042551 69 246 0.9 6.1 0.04 0.23 0.03 90 1013.8
20260507042051 69 234 0.9 6.1 0.03 0.22 0.02 89 1014.0
20260507041557 69 287 0.9 5.2 0.01 0.20 0.00 88 1013.8
20260507041051 70 238 1.7 7.0 0.01 0.20 0.00 88 1013.7
20260507040552 70 286 0.9 7.0 0.01 0.20 0.00 88 1013.6
20260507040100 70 260 0.9 3.5 0.01 0.20 0.00 88 1013.4
20260507035550 70 241 0.0 1.7 0.01 0.20 0.20 87 1013.4
20260507035053 70 0 0.0 0.9 0.01 0.20 0.20 86 1013.2
20260507034556 71 0 0.0 0.9 0.01 0.20 0.20 84 1012.9
20260507034049 72 0 0.0 1.7 0.01 0.20 0.20 82 1012.7
20260507033554 72 0 0.0 1.7 0.00 0.19 0.19 80 1012.5
20260507033052 72 0 0.0 6.1 0.00 0.19 0.19 79 1012.7
20260507032552 72 0 1.7 6.1 0.00 0.19 0.19 79 1013.2
20260507032048 72 288 0.0 5.2 0.00 0.19 0.19 78 1013.2
20260507031556 72 0 1.7 5.2 0.00 0.19 0.19 78 1013.1
20260507031048 72 0 0.9 4.3 0.00 0.19 0.19 78 1013.2
20260507030551 72 0 0.0 4.3 0.00 0.19 0.19 79 1013.0
20260507030056 72 0 0.0 2.6 0.00 0.19 0.19 79 1012.8